Location: Chapel Hill
(35.9134°N, 79.0560°W)
Time: 18:12:29
(UTC-04:00)

Courier 1B - All Passes

Search period start: 01 November 2024 00:00
Search period end: 10 November 2024 23:00
Orbit: 962 x 1208 km, 28.3° (Epoch: 01 November)

Date Brightness Start Highest point End Pass type
(mag) Time Alt. Az. Time Alt. Az. Time Alt. Az.
01 Nov - 00:44:28 10° WSW 00:51:05 34° SSW 00:57:54 10° SE night (unlit)
01 Nov - 02:40:30 10° WSW 02:44:35 15° SSW 02:48:41 10° S night (unlit)
01 Nov - 18:12:42 10° S 18:16:31 16° SSE 18:20:27 10° ESE daylight
01 Nov - 20:03:38 10° SW 20:09:45 35° SSE 20:16:14 10° ESE visible
01 Nov - 21:56:40 10° WSW 22:03:25 47° S 22:10:35 10° ESE visible
01 Nov - 23:50:30 10° WSW 23:57:12 38° SSW 00:04:13 10° SE night (unlit)
02 Nov - 01:45:39 10° WSW 01:50:47 20° SSW 01:56:02 10° SSE night (unlit)
02 Nov - 17:21:10 10° SSE 17:22:56 11° SSE 17:24:42 10° SE daylight
02 Nov - 19:10:20 10° SW 19:16:02 30° SSE 19:22:01 10° ESE visible
02 Nov - 21:03:01 10° WSW 21:09:34 46° S 21:16:33 10° ESE visible
02 Nov - 22:56:39 10° WSW 23:03:21 42° S 23:10:24 10° ESE visible
03 Nov - 00:51:13 10° WSW 00:57:00 24° SSW 01:02:55 10° SSE night (unlit)
03 Nov - 17:17:14 10° SSW 17:22:23 24° SSE 17:27:43 10° ESE daylight
03 Nov - 19:09:26 10° WSW 19:15:46 42° S 19:22:29 10° ESE visible
03 Nov - 21:02:52 10° WSW 21:09:30 45° S 21:16:31 10° ESE visible
03 Nov - 22:57:04 10° WSW 23:03:10 29° SSW 23:09:31 10° SE night (unlit)
04 Nov - 00:54:28 10° SW 00:56:36 11° SSW 00:58:45 10° SSW night (unlit)
04 Nov - 16:24:22 10° SSW 16:28:45 19° SSE 16:33:15 10° ESE daylight
04 Nov - 18:15:58 10° SW 18:22:02 38° SSE 18:28:25 10° ESE visible
04 Nov - 20:09:09 10° WSW 20:15:40 46° S 20:22:34 10° ESE visible
04 Nov - 22:03:05 10° WSW 22:09:21 33° SSW 22:15:57 10° SE visible
04 Nov - 23:58:48 10° WSW 00:02:50 15° SSW 00:06:58 10° S night (unlit)
05 Nov - 15:31:59 10° S 15:35:10 14° SSE 15:38:23 10° ESE daylight
05 Nov - 17:22:35 10° SW 17:28:20 33° SSE 17:34:20 10° ESE daylight
05 Nov - 19:15:30 10° WSW 19:21:52 46° S 19:28:36 10° ESE visible
05 Nov - 21:09:12 10° WSW 21:15:32 37° SSW 21:22:14 10° SE visible
05 Nov - 23:04:08 10° WSW 23:09:04 20° SSW 23:14:11 10° SSE night (unlit)
06 Nov - 16:29:19 10° SW 16:34:41 27° SSE 16:40:12 10° ESE daylight
06 Nov - 18:21:54 10° WSW 18:28:06 44° S 18:34:38 10° ESE visible
06 Nov - 20:15:26 10° WSW 20:21:45 41° S 20:28:27 10° ESE visible
06 Nov - 22:09:51 10° WSW 22:15:18 24° SSW 22:21:01 10° SSE visible
07 Nov - 15:36:14 10° SSW 15:41:03 22° SSE 15:45:57 10° ESE daylight
07 Nov - 17:28:21 10° WSW 17:34:22 40° S 17:40:39 10° ESE visible
07 Nov - 19:21:42 10° WSW 19:27:58 43° S 19:34:36 10° ESE visible
07 Nov - 21:15:47 10° WSW 21:21:32 28° SSW 21:27:36 10° SE visible
07 Nov - 23:12:54 10° SW 23:14:56 11° SSW 23:17:00 10° SSW night (unlit)
08 Nov - 14:43:25 10° SSW 14:47:27 17° SSE 14:51:31 10° ESE daylight
08 Nov - 16:34:52 10° SW 16:40:41 36° SSE 16:46:40 10° ESE daylight
08 Nov - 18:28:01 10° WSW 18:34:12 44° S 18:40:43 10° ESE visible
08 Nov - 20:21:52 10° WSW 20:27:48 33° SSW 20:34:02 10° SE visible
08 Nov - 22:17:25 10° WSW 22:21:12 15° SSW 22:25:06 10° S night (unlit)
09 Nov - 13:51:06 10° S 13:53:52 13° SSE 13:56:37 10° SE daylight
09 Nov - 15:41:28 10° SW 15:47:01 31° SSE 15:52:41 10° ESE daylight
09 Nov - 17:34:22 10° WSW 17:40:29 44° S 17:46:50 10° ESE visible
09 Nov - 19:28:03 10° WSW 19:34:03 37° SSW 19:40:22 10° SE visible
09 Nov - 21:22:51 10° WSW 21:27:29 19° SSW 21:32:18 10° SSE visible
10 Nov - 14:48:10 10° SW 14:53:24 26° SSE 14:58:38 10° ESE daylight
10 Nov - 16:40:45 10° WSW 16:46:47 42° S 16:52:57 10° ESE daylight
10 Nov - 18:34:17 10° WSW 18:40:19 40° S 18:46:38 10° ESE visible
10 Nov - 20:28:38 10° WSW 20:33:47 23° SSW 20:39:09 10° SSE visible
